Burns Flat, OK

7:14 PM CST on February 25, 2017 (GMT -0600)
Clinton-Sherman

Weather History for KCSM - January, 1999

Change the Weather History Date:

Friday, January 1, 1999

  Actual Average Record
Temperature  
Mean Temperature 35 °F -  
Max Temperature 42 °F 47 °F 72 °F (2006)
Min Temperature 28 °F 28 °F 10 °F (2001)
Degree Days  
Heating Degree Days 30    
Moisture  
Dew Point 29 °F    
Average Humidity 80    
Maximum Humidity 96    
Minimum Humidity 60    
Precipitation  
Precipitation 0.00 in - - ()
Sea Level Pressure  
Sea Level Pressure 29.84 in    
Wind  
Wind Speed 14 mph (SE)    
Max Wind Speed 29 mph    
Max Gust Speed 36 mph    
Visibility 4 miles    
Events Fog , Rain    
Averages and records for this station are not official NWS values.
T = Trace of Precipitation, MM = Missing Value Source: NWS Daily Summary

Daily Weather History Graph

Daily Weather History Graph

Search for Another Location

Airport or City:

Trip Planner

Search our weather history database for the weather conditions in past years. The results will help you decide how hot, cold, wet, or windy it might be!

Date:

Astronomy

Jan. 01, 1999 Rise Set
Actual Time 7:45 AM CST 5:35 PM CST
Civil Twilight 7:17 AM CST 6:03 PM CST
Nautical Twilight 6:45 AM CST 6:35 PM CST
Astronomical Twilight 6:14 AM CST 7:05 PM CST
Moon 5:33 PM CST (1/1) 7:03 AM CST (1/1)
Length of Visible Light 10h 45m
Length of Day
9h 49m
Full, 100% of the Moon is Illuminated
Jan 1
Full
Jan 1
Full
Jan 9
Last Quarter
Jan 17
New
Jan 24
First Quarter

Hourly Weather History & Observations

Time (CST) Temp. Windchill Dew Point Humidity Pressure Visibility Wind Dir Wind Speed Gust Speed Precip Events Conditions
12:53 AM 32.0 °F 22.5 °F 21.0 °F 64% 30.00 in 10.0 mi SSE 12.7 mph - N/A   Overcast
1:07 AM 32.0 °F 23.0 °F 21.2 °F 64% 29.95 in 10.0 mi SSE 11.5 mph - N/A   Overcast
1:53 AM 33.1 °F 24.9 °F 21.9 °F 64% 29.95 in 10.0 mi SSE 10.4 mph - N/A   Overcast
2:04 AM 33.8 °F 24.8 °F 21.2 °F 60% 29.91 in 10.0 mi SSE 12.7 mph - N/A   Overcast
2:53 AM 35.1 °F 27.4 °F 24.1 °F 64% 29.94 in 10.0 mi SSE 10.4 mph - N/A   Overcast
3:35 AM 35.6 °F 27.1 °F 24.8 °F 65% 29.88 in 10.0 mi SSE 12.7 mph - N/A   Overcast
3:53 AM 36.0 °F 28.0 °F 26.1 °F 67% 29.91 in 10.0 mi South 11.5 mph - N/A   Overcast
4:53 AM 36.0 °F 28.0 °F 28.0 °F 73% 29.88 in 10.0 mi SSE 11.5 mph - N/A   Overcast
5:41 AM 35.6 °F 27.5 °F 32.0 °F 87% 29.84 in 2.0 mi South 11.5 mph - N/A   Overcast
5:53 AM 35.1 °F 26.4 °F 30.9 °F 85% 29.86 in 1.8 mi SSE 12.7 mph - N/A   Overcast
6:07 AM 35.6 °F 27.1 °F 32.0 °F 87% 29.83 in 1.2 mi South 12.7 mph - N/A   Overcast
6:23 AM 35.6 °F 28.0 °F 32.0 °F 87% 29.82 in 2.5 mi SSE 10.4 mph - N/A   Overcast
6:53 AM 35.1 °F 25.9 °F 32.0 °F 89% 29.85 in 3.0 mi South 13.8 mph - N/A   Overcast
7:24 AM 35.6 °F 26.6 °F 32.0 °F 87% 29.80 in 2.5 mi SSE 13.8 mph - N/A   Overcast
7:36 AM 35.6 °F 26.6 °F 32.0 °F 87% 29.80 in 1.8 mi South 13.8 mph - N/A   Overcast
7:46 AM 35.6 °F 26.2 °F 32.0 °F 87% 29.79 in 0.8 mi SSE 15.0 mph - N/A   Overcast
7:53 AM 36.0 °F 26.3 °F 32.0 °F 86% 29.82 in 0.8 mi SSE 16.1 mph - N/A   Overcast
8:03 AM 35.6 °F 26.2 °F 32.0 °F 87% 29.79 in 0.2 mi SSE 15.0 mph - N/A Fog Fog
8:53 AM 36.0 °F 27.5 °F 30.9 °F 82% 29.81 in 0.2 mi South 12.7 mph - N/A   Haze
9:53 AM 37.0 °F 28.1 °F 30.9 °F 79% 29.80 in 0.5 mi SSE 15.0 mph - N/A   Haze
10:53 AM 39.0 °F 32.8 °F 30.9 °F 73% 29.80 in 0.5 mi SSW 9.2 mph - N/A   Haze
11:07 AM 39.2 °F 35.0 °F 32.0 °F 75% 29.76 in 0.8 mi South 5.8 mph - N/A   Haze
11:53 AM 39.9 °F 33.9 °F 30.9 °F 70% 29.76 in 0.5 mi South 9.2 mph - N/A   Haze
12:53 PM 41.0 °F 35.8 °F 32.0 °F 70% 29.71 in 0.2 mi South 8.1 mph - N/A   Haze
1:53 PM 42.1 °F 38.4 °F 30.9 °F 65% 29.71 in 0.2 mi North 5.8 mph - N/A   Haze
2:53 PM 39.9 °F 32.9 °F 32.0 °F 73% 29.71 in 0.2 mi NNE 11.5 mph - 0.00 in Rain Light Rain
3:53 PM 39.9 °F 31.4 °F 30.9 °F 70% 29.71 in 0.2 mi North 16.1 mph - 0.00 in   Haze
4:53 PM 36.0 °F 27.5 °F 32.0 °F 86% 29.76 in 0.2 mi North 12.7 mph - N/A Fog Fog
5:38 PM 33.8 °F 23.2 °F 32.0 °F 93% 29.76 in 1.0 mi North 17.3 mph 23.0 mph N/A   Overcast
5:53 PM 34.0 °F 22.4 °F 32.0 °F 92% 29.81 in 2.5 mi North 20.7 mph - N/A   Overcast
6:02 PM 33.8 °F 23.5 °F 32.0 °F 93% 29.79 in 4.0 mi North 16.1 mph - N/A   Overcast
6:36 PM 32.0 °F 20.8 °F 30.2 °F 93% 29.82 in 5.0 mi North 17.3 mph - N/A   Overcast
6:53 PM 32.0 °F 19.8 °F 30.9 °F 96% 29.86 in 6.0 mi North 20.7 mph - N/A   Overcast
7:34 PM 32.0 °F 19.2 °F 30.2 °F 93% 29.84 in 6.0 mi North 23.0 mph 26.5 mph 0.00 in Rain Light Rain
7:53 PM 32.0 °F 19.8 °F 30.9 °F 96% 29.88 in 7.0 mi North 20.7 mph 28.8 mph 0.00 in   Overcast
8:53 PM 30.9 °F 17.8 °F 28.0 °F 89% 29.90 in 10.0 mi North 23.0 mph 33.4 mph N/A   Overcast
9:53 PM 30.0 °F 16.9 °F 27.0 °F 88% 29.92 in 10.0 mi North 21.9 mph 31.1 mph N/A   Overcast
10:53 PM 28.9 °F 14.3 °F 24.1 °F 82% 29.92 in 10.0 mi North 26.5 mph 34.5 mph N/A   Overcast
11:36 PM 28.4 °F 13.0 °F 24.8 °F 86% 29.91 in 10.0 mi North 28.8 mph 35.7 mph N/A   Overcast
11:53 PM 28.0 °F 12.8 °F 23.0 °F 81% 29.94 in 10.0 mi North 27.6 mph 35.7 mph N/A   Overcast